Startpagina
METAR-TAF:

METAR-TAF

Vliegvelden :

Productieplatform

Hoorn-a, Nederland

breedte: 52-55-05N, lengte: 4-09-01E, hoogte: 41 m

Actueel weer

Dit bericht is 48 minuten geleden gemaakt, om 23:25 UTC
Wind 8 kt uit het westen
Temperatuur 13°C
Vochtigheid 82%
Druk 1026 hPa
Zicht 10 km of meer

METAR: EHQE 122325Z AUTO 26008KT 9999 NCD 13/10 Q1026

Tijdstip: 02:13 (00:13 UTC)


TAF: ontbreekt

Waarnemingen en weersverwachtingen van meer dan 4000 vliegvelden (METAR en TAF).

De beschikbare stations zijn de gele en rode punten op de kaart.

Ga met uw muis naar het station om de naam te zien.

Klik dan om waarnemingen en weersverwachtingen te zien.

kaart wijzigen: klik op de groene knoppen met een zwart kruis om in te zoomen, op de groene knop met een streepje om uit te zoomen of op de groene pijlen voor aangrenzende kaarten.


METAR-TAF: